Overview Statistics Trail Chart Weather Telemetry Raw packets
 

This is the latest recevied weather packets stored in our database for station/object SV9TNF-57. If no packets are shown the sender has not sent any weather packets the latest 10 day(s).

<< 109 110 111 112 113 114 115 >>
Time Temp. Humidity Pressure Rain* Wind** Luminosity Snow
1787835394 34.44° C 30% 995.2 hPa 0 mm 11.18 m/s, 301° - -
1787835093 33.89° C 31% 994.9 hPa 0 mm 12.07 m/s, 299° - -
1787834793 34.44° C 30% 995 hPa 0 mm 16.54 m/s, 354° - -
1787834494 33.89° C 31% 994.9 hPa 0 mm 12.52 m/s, 245° - -
1787834193 34.44° C 30% 994.9 hPa 0 mm 12.52 m/s, 330° - -
1787833893 33.89° C 30% 995.1 hPa 0 mm 14.31 m/s, 332° - -
1787833593 34.44° C 30% 994.9 hPa 0 mm 12.07 m/s, 29° - -
1787833293 34.44° C 30% 995.2 hPa 0 mm 8.94 m/s, 318° - -
1787832993 33.89° C 31% 995 hPa 0 mm 10.28 m/s, 329° - -
1787832693 33.89° C 30% 995 hPa 0 mm 16.09 m/s, 299° - -
1787832393 34.44° C 30% 995.3 hPa 0 mm 8.49 m/s, 287° - -
1787832093 34.44° C 30% 995.1 hPa 0 mm 13.86 m/s, 349° - -
1787831793 34.44° C 31% 995.1 hPa 0 mm 10.28 m/s, 299° - -
1787831492 34.44° C 31% 995.5 hPa 0 mm 12.07 m/s, 318° - -
1787831192 33.89° C 32% 995.2 hPa 0 mm 13.41 m/s, 44° - -
1787830892 35° C 31% 995.4 hPa 0 mm 12.07 m/s, 350° - -
1787830593 34.44° C 31% 995.4 hPa 0 mm 6.71 m/s, 7° - -
1787830292 34.44° C 31% 995.6 hPa 0 mm 12.07 m/s, 232° - -
1787829992 34.44° C 31% 995.2 hPa 0 mm 10.28 m/s, 37° - -
1787829692 33.89° C 31% 995.4 hPa 0 mm 18.33 m/s, 263° - -
1787829392 34.44° C 31% 995.4 hPa 0 mm 16.54 m/s, 347° - -
1787829092 34.44° C 31% 995.6 hPa 0 mm 7.15 m/s, 282° - -
1787828792 34.44° C 31% 995.7 hPa 0 mm 10.28 m/s, 359° - -
1787828492 34.44° C 31% 995.5 hPa 0 mm 12.07 m/s, 226° - -
1787828191 34.44° C 31% 995.5 hPa 0 mm 8.49 m/s, 351° - -

* Rain latest hour (hover to see other rain measurements)
** Current wind speed in m/s (hover to see current wind gust speed)